x

8454000 - Providence, Ri (foxr1) Weather Station

10:54 - Tue 22nd Jul 2014 All times are EDT. -4 hours from GMT.

  • Wind
    8mph, 13mph gusts
  • Sea Temp 74°f
  • Aire Temp 76°f
  • Sea Pressure 1016.2mb
  • 8454000 - Providence, Ri
  • 8454000 - Providence, Ri

More Historic Weather Station data

Upgrade to MSW Pro to gain access to the past 30 days of data for over 8000 Wavebouys and Weather Stations around the globe.

Join Pro

Comparision Forecast

View Surf forecast
   
mar 07/22 10:54 8 13 mph 1016.2mb 74f 76f
10:48 7 15 mph 1016.1mb 74f 76f
10:42 7 10 mph 1016.2mb 74f 76f
10:36 7 11 mph 1016.2mb 74f 76f
10:30 7 14 mph 1016.3mb 74f 76f
10:24 9 13 mph 1016.4mb 74f 76f
10:18 6 17 mph 1016.4mb 74f 76f
10:12 8 15 mph 1016.5mb 74f 76f
10:06 9 14 mph 1016.5mb 74f 76f
10:00 9 14 mph 1016.6mb 74f 76f
9:54 10 17 mph 1016.5mb 74f 76f
9:48 11 16 mph 1016.6mb 74f 76f
9:42 8 15 mph 1016.6mb 74f 76f
9:36 9 14 mph 1016.6mb 74f 76f
9:30 8 14 mph 1016.6mb 74f 76f
9:24 8 14 mph 1016.6mb 74f 77f
9:18 10 14 mph 1016.6mb 75f 77f
9:12 9 14 mph 1016.6mb 74f 77f
9:06 10 14 mph 1016.6mb 74f 77f
9:00 13 17 mph 1016.6mb 74f 77f
8:54 9 17 mph 1016.7mb 74f 78f
8:48 9 18 mph 1016.7mb 74f 78f
8:42 10 17 mph 1016.8mb 74f 78f
8:36 10 15 mph 1016.6mb 74f 78f
8:30 11 16 mph 1016.6mb 74f 78f
8:24 8 16 mph 1016.5mb 74f 79f
8:18 10 18 mph 1016.4mb 74f 79f
8:12 9 15 mph 1016.4mb 74f 80f
8:06 6 10 mph 1016.4mb 74f 80f
8:00 9 15 mph 1016.4mb 74f 80f
7:54 10 15 mph 1016.5mb 74f 81f
7:48 10 16 mph 1016.5mb 74f 81f
7:42 9 16 mph 1016.5mb 74f 81f
7:36 8 13 mph 1016.5mb 74f 82f
7:30 9 14 mph 1016.5mb 74f 82f
7:24 7 14 mph 1016.5mb 74f 82f
7:18 13 16 mph 1016.4mb 74f 82f
7:12 13 20 mph 1016.3mb 74f 82f
7:06 14 20 mph 1016.3mb 74f 82f
7:00 13 17 mph 1016.3mb 74f 83f
6:54 13 15 mph 1016.3mb 74f 83f
6:48 10 17 mph 1016.3mb 74f 83f
6:42 13 16 mph 1016.3mb 74f 83f
6:36 10 17 mph 1016.3mb 74f 84f
6:30 10 18 mph 1016.3mb 74f 84f
6:24 13 18 mph 1016.3mb 74f 84f
6:18 11 17 mph 1016.4mb 74f 84f
6:12 13 18 mph 1016.4mb 74f 84f
6:06 10 20 mph 1016.4mb 74f 85f
6:00 11 18 mph 1016.5mb 73f 85f
5:54 14 20 mph 1016.5mb 73f 86f
5:48 9 21 mph 1016.5mb 73f 86f
5:42 13 18 mph 1016.5mb 73f 86f
5:36 16 22 mph 1016.5mb 73f 85f
5:30 11 21 mph 1016.5mb 73f 87f
5:24 16 21 mph 1016.5mb 73f 86f
5:18 13 17 mph 1016.4mb 73f 87f
5:12 10 18 mph 1016.4mb 73f 87f
5:06 13 16 mph 1016.4mb 73f 87f
5:00 10 16 mph 1016.4mb 73f 87f
4:54 11 17 mph 1016.4mb 73f 86f
4:48 10 20 mph 1016.5mb 73f 87f
4:42 13 18 mph 1016.5mb 73f 86f
4:36 11 20 mph 1016.5mb 73f 87f
4:30 10 17 mph 1016.5mb 73f 86f
4:24 11 16 mph 1016.6mb 73f 83f
4:18 15 17 mph 1016.7mb 73f 82f
4:12 15 18 mph 1016.6mb 73f 82f
4:06 11 17 mph 1016.7mb 73f 81f
4:00 14 21 mph 1016.8mb 73f 81f
3:54 17 22 mph 1016.9mb 73f 80f
3:48 16 21 mph 1016.8mb 74f 80f
3:42 15 18 mph 1016.9mb 74f 80f
3:36 16 20 mph 1017mb 74f 80f
3:30 15 18 mph 1017.1mb 74f 80f
3:24 17 22 mph 1017.2mb 74f 80f
3:18 18 22 mph 1017.2mb 74f 80f
3:12 17 21 mph 1017.2mb 74f 81f
3:06 16 20 mph 1017.3mb 74f 81f
3:00 13 17 mph 1017.4mb 74f 81f
2:54 15 21 mph 1017.5mb 74f 81f
2:48 18 22 mph 1017.5mb 74f 81f
2:42 17 21 mph 1017.6mb 74f 81f
2:36 15 21 mph 1017.7mb 74f 82f
2:30 18 22 mph 1017.7mb 74f 81f
2:24 14 21 mph 1017.8mb 74f 81f
2:18 18 21 mph 1017.8mb 74f 81f
2:12 15 20 mph 1017.9mb 74f 82f
2:06 18 21 mph 1017.8mb 74f 81f
2:00 13 18 mph 1017.9mb 74f 82f
1:54 13 17 mph 1017.9mb 74f 82f
1:48 15 17 mph 1018mb 74f 81f
1:42 13 15 mph 1018.1mb 74f 81f
1:36 10 14 mph 1018.2mb 74f 81f
1:30 13 16 mph 1018.2mb 73f 81f
1:24 10 14 mph 1018.3mb 73f 81f
1:18 10 14 mph 1018.3mb 73f 80f
1:12 10 14 mph 1018.4mb 73f 81f
1:06 10 14 mph 1018.5mb 73f 81f
1:00 13 15 mph 1018.5mb 73f 80f
12:54 8 11 mph 1018.7mb 73f 81f
12:48 10 13 mph 1018.8mb 73f 80f
12:42 8 14 mph 1018.8mb 73f 81f
12:36 13 15 mph 1018.8mb 73f 80f
12:30 11 14 mph 1018.9mb 73f 80f
12:24 11 14 mph 1018.8mb 73f 80f
12:18 11 14 mph 1018.9mb 73f 79f
12:12 11 14 mph 1018.9mb 73f 79f
12:06 11 15 mph 1019mb 73f 80f
12:00 13 14 mph 1018.9mb 73f 79f
11:54 13 15 mph 1019mb 73f 79f
11:48 11 15 mph 1019mb 73f 79f
11:42 13 15 mph 1019.1mb 73f 79f
11:36 11 13 mph 1019.1mb 73f 79f
11:30 11 13 mph 1019.2mb 73f 78f
11:24 11 14 mph 1019.3mb 73f 78f
11:18 11 13 mph 1019.2mb 73f 78f
11:12 10 13 mph 1019.2mb 73f 78f
11:06 11 13 mph 1019.1mb 73f 78f
11:00 10 13 mph 1019mb 73f 77f
10:54 9 11 mph 1019mb 73f 77f
10:48 10 11 mph 1019.1mb 73f 77f
10:42 10 11 mph 1019.1mb 73f 77f
10:36 9 10 mph 1019.1mb 73f 77f
10:30 7 9 mph 1019.2mb 73f 77f
10:24 8 9 mph 1019.3mb 73f 76f
10:18 8 9 mph 1019.3mb 73f 76f
10:12 8 9 mph 1019.3mb 73f 76f
10:06 7 8 mph 1019.3mb 73f 75f
10:00 8 9 mph 1019.3mb 73f 75f
9:54 8 9 mph 1019.3mb 73f 75f
9:48 9 10 mph 1019.2mb 73f 75f
9:42 7 8 mph 1019.3mb 73f 75f
9:36 7 10 mph 1019.3mb 73f 75f
9:30 8 9 mph 1019.4mb 73f 74f
9:24 6 8 mph 1019.5mb 73f 75f
9:18 1 7 mph 1019.5mb 73f 78f
9:12 2 5 mph 1019.6mb 74f 77f
9:06 3 6 mph 1019.7mb 74f 76f
9:00 5 7 mph 1019.8mb 74f 77f
8:54 6 8 mph 1019.9mb 74f 77f
8:48 2 5 mph 1020mb 74f 76f
8:42 3 6 mph 1020mb 74f 73f
8:36 3 6 mph 1020mb 74f 73f
8:30 6
mph
1020.1mb 74f 72f
8:24 5 6 mph 1020.2mb 74f 72f
8:18 5 6 mph 1020.3mb 74f 71f
8:12 5 6 mph 1020.3mb 74f 71f
8:06 5 6 mph 1020.3mb 74f 71f
8:00 5
mph
1020.3mb 74f 71f
7:54 3 5 mph 1020.3mb 74f 71f
7:48 5 6 mph 1020.2mb 74f 70f
7:42 3 5 mph 1020.2mb 74f 70f
7:36 2 3 mph 1020.3mb 74f 70f
7:30 3
mph
1020.2mb 74f 69f
7:24 2 3 mph 1020.2mb 74f 69f
7:18 2 3 mph 1020.2mb 74f 69f
7:12 3
mph
1020.2mb 74f 69f
7:06 2 3 mph 1020.2mb 73f 68f
7:00 3 5 mph 1020.2mb 73f 68f
6:54 3
mph
1020.2mb 73f 68f
6:48 3
mph
1020.1mb 73f 67f
6:42 3 5 mph 1020.1mb 73f 67f
6:36 3 5 mph 1020.1mb 73f 67f
6:30 3
mph
1020.2mb 73f 67f
6:24 2 3 mph 1020.3mb 73f 67f
6:18 2 3 mph 1020.3mb 73f 66f
6:12 3 5 mph 1020.3mb 73f 66f
6:06 3
mph
1020.2mb 73f 66f
6:00 3
mph
1020.3mb 73f 66f
5:54 2 3 mph 1020.3mb 73f 66f
5:48 3 5 mph 1020.3mb 73f 66f
5:42 5 6 mph 1020.3mb 73f 66f
5:36 5
mph
1020.3mb 73f 66f
5:30 3 5 mph 1020.2mb 73f 66f
5:24 3 5 mph 1020.2mb 73f 66f
5:18 3 5 mph 1020.2mb 73f 66f
5:12 3 5 mph 1020.2mb 73f 66f
5:06 3
mph
1020.2mb 73f 66f
5:00 2 3 mph 1020.2mb 73f 66f
4:54 2 3 mph 1020.1mb 73f 66f
4:48 2 5 mph 1020.1mb 73f 66f
4:42 2 3 mph 1020.1mb 73f 66f
4:36 2 3 mph 1020.1mb 73f 67f
4:30 3 6 mph 1020mb 73f 67f
4:24 5 6 mph 1020mb 73f 67f
4:18 5 6 mph 1020mb 73f 67f
4:12 5 6 mph 1020mb 73f 67f
4:06 3 5 mph 1020mb 73f 67f
4:00 3 5 mph 1020mb 73f 67f
3:54 3 5 mph 1020mb 73f 67f
3:48 3 5 mph 1020mb 73f 67f
3:42 3
mph
1020mb 73f 67f
3:36 2 3 mph 1020mb 73f 67f
3:30 2 3 mph 1020.1mb 73f 67f
3:24 1 3 mph 1020mb 73f 67f
3:18 2 3 mph 1020mb 73f 67f
3:12 1 2 mph 1020.1mb 73f 67f
3:06 1 2 mph 1020mb 73f 67f
3:00  -  2 mph 1020mb 73f 67f
2:54  -  3 mph 1020.1mb 73f 67f
2:48 3
mph
1020.1mb 73f 67f
2:42 2
mph
1020.1mb 73f 67f
2:36 2
mph
1020.1mb 73f 67f
2:30 2
mph
1020.1mb 74f 67f
2:24 2 5 mph 1020.1mb 73f 67f
2:18 3 5 mph 1020.1mb 73f 67f
2:12 2 7 mph 1020.2mb 73f 67f
2:06 5 7 mph 1020.3mb 74f 68f
2:00 3 5 mph 1020.3mb 74f 68f
1:54 3 6 mph 1020.3mb 74f 68f
1:48 3 7 mph 1020.3mb 74f 68f
1:42 5 8 mph 1020.3mb 74f 68f
1:36 3 6 mph 1020.3mb 74f 68f
1:30 3 8 mph 1020.4mb 74f 68f
1:24 6 8 mph 1020.4mb 74f 68f
1:18 5 8 mph 1020.4mb 74f 68f
1:12 6 7 mph 1020.4mb 74f 68f
1:06 6 9 mph 1020.5mb 74f 69f
1:00 6 8 mph 1020.5mb 74f 69f
12:54 6 10 mph 1020.5mb 74f 69f
12:48 6 9 mph 1020.5mb 74f 69f
12:42 7 9 mph 1020.5mb 74f 69f
12:36 7 9 mph 1020.6mb 74f 69f
12:30 6 8 mph 1020.6mb 74f 69f
12:24 3 7 mph 1020.6mb 74f 69f
12:18 7 8 mph 1020.6mb 74f 69f
12:12 3 7 mph 1020.6mb 74f 70f
12:06 5 7 mph 1020.7mb 74f 70f
12:00 3 6 mph 1020.8mb 74f 70f
lun 07/21 11:54 6 8 mph 1020.8mb 74f 70f
11:48 3 6 mph 1020.8mb 74f 70f
11:42 3 6 mph 1020.9mb 74f 70f
11:36 2 6 mph 1020.9mb 74f 70f
11:30 6 7 mph 1020.9mb 74f 70f
11:24 6 7 mph 1020.9mb 74f 70f
11:18 3 6 mph 1020.9mb 74f 70f
11:12 3 5 mph 1020.9mb 74f 70f
11:06 2 6 mph 1020.9mb 74f 71f
11:00 3 5 mph 1021mb 74f 71f
10:54 5 7 mph 1021mb 74f 71f
10:48 6 8 mph 1021mb 74f 71f
10:42 3 7 mph 1021mb 74f 71f
10:36 5 8 mph 1021mb 74f 71f
10:30 6 9 mph 1021mb 74f 71f
10:24 6 8 mph 1021mb 74f 71f
10:18 5 6 mph 1021mb 74f 71f
10:12 6 9 mph 1021mb 74f 71f
10:06 6 8 mph 1021mb 74f 71f
10:00 7 9 mph 1021mb 74f 71f
9:54 3 9 mph 1021mb 74f 72f
9:48 6 11 mph 1021mb 74f 72f
9:42 6 10 mph 1021mb 74f 72f
9:36 7 10 mph 1021mb 74f 72f
9:30 9 11 mph 1020.9mb 74f 72f
9:24 6 9 mph 1020.9mb 74f 73f
9:18 6 10 mph 1020.9mb 74f 73f
9:12 7 9 mph 1020.9mb 74f 73f
9:06 6 8 mph 1020.8mb 74f 73f
9:00 6 8 mph 1020.7mb 73f 74f
8:54 5 7 mph 1020.6mb 73f 74f
8:48 6 9 mph 1020.6mb 73f 74f
8:42 6 9 mph 1020.5mb 73f 75f
8:36 6 9 mph 1020.4mb 73f 75f
8:30 6 8 mph 1020.4mb 73f 75f
8:24 6 9 mph 1020.4mb 73f 75f
8:18 6 8 mph 1020.4mb 73f 75f
8:12 6 8 mph 1020.4mb 73f 75f
8:06 8 9 mph 1020.4mb 73f 75f
8:00 9 10 mph 1020.4mb 73f 76f
7:54 7 8 mph 1020.4mb 73f 76f
7:48 7 8 mph 1020.3mb 73f 76f
7:42 7 8 mph 1020.2mb 73f 76f
7:36 8 9 mph 1020.2mb 73f 77f
7:30 6 8 mph 1020.1mb 73f 77f
7:24 7 8 mph 1020mb 73f 77f
7:18 6 7 mph 1020mb 73f 77f
7:12 6 7 mph 1020.1mb 73f 77f
7:06 5 7 mph 1020mb 73f 77f
7:00 6 8 mph 1020.1mb 72f 78f
6:54 8 9 mph 1020.1mb 72f 78f
6:48 7 8 mph 1020.1mb 72f 78f
6:42 5 7 mph 1020mb 72f 78f
6:36 7 8 mph 1020mb 72f 78f
6:30 5 7 mph 1020mb 72f 78f
6:24 3 7 mph 1020mb 72f 79f
6:18 6 9 mph 1020mb 72f 78f
6:12 6 9 mph 1020mb 72f 78f
6:06 7 9 mph 1019.9mb 72f 78f
6:00 7 9 mph 1019.9mb 72f 79f
5:54 5 7 mph 1020mb 72f 79f
5:48 6 9 mph 1019.9mb 72f 79f
5:42 8 11 mph 1019.7mb 72f 78f
5:36 6 9 mph 1019.7mb 72f 78f
5:30 6 10 mph 1019.7mb 72f 79f
5:24 8 11 mph 1019.6mb 72f 79f
5:18 8 9 mph 1019.7mb 72f 79f
5:12 6 9 mph 1019.7mb 72f 79f
5:06 8 10 mph 1019.7mb 72f 78f
5:00 7 9 mph 1019.7mb 72f 80f
4:54 2 9 mph 1019.7mb 72f 79f
4:48 8 11 mph 1019.7mb 72f 78f
4:42 5 10 mph 1019.8mb 72f 78f
4:36 7 9 mph 1019.9mb 72f 79f
4:30 6 8 mph 1019.9mb 72f 78f
4:24 6 9 mph 1019.9mb 72f 79f
4:18 7 10 mph 1020mb 72f 78f
4:12 7 10 mph 1020mb 72f 78f
4:06 8 11 mph 1020.1mb 72f 79f
4:00 3 10 mph 1020mb 72f 78f
3:54 7 14 mph 1020.1mb 72f 78f
3:48 10 14 mph 1020.1mb 72f 79f
3:42 5 11 mph 1020.1mb 72f 79f
3:36 9 14 mph 1020.1mb 72f 78f
3:30 6 14 mph 1020.2mb 72f 79f
3:24 7 9 mph 1020.2mb 72f 78f
3:18 6 8 mph 1020.3mb 72f 77f
3:12 2 7 mph 1020.3mb 72f 78f
3:06 6 10 mph 1020.3mb 72f 78f
3:00 6 8 mph 1020.4mb 72f 78f
2:54 6 8 mph 1020.4mb 72f 78f
2:48 5 10 mph 1020.5mb 72f 78f
2:42 9 13 mph 1020.5mb 72f 78f
2:36 5 8 mph 1020.6mb 72f 80f
2:30 5 10 mph 1020.6mb 72f 78f
2:24 10 11 mph 1020.6mb 72f 78f
2:18 9 13 mph 1020.5mb 72f 78f
2:12 8 10 mph 1020.5mb 72f 76f
2:06 5 10 mph 1020.6mb 72f 77f
2:00 9 10 mph 1020.6mb 72f 77f
1:54 5 10 mph 1020.7mb 72f 76f
1:48 9 10 mph 1020.7mb 72f 77f
1:42 5 9 mph 1020.7mb 73f 77f
1:36 5 8 mph 1020.7mb 73f 76f
1:30  -  6 mph 1020.8mb 73f 76f
1:24 3 7 mph 1020.8mb 73f 77f
1:18 2 5 mph 1020.8mb 73f 76f
1:12 5 11 mph 1020.8mb 72f 76f
1:06 5 13 mph 1020.8mb 72f 77f
1:00 3 10 mph 1020.8mb 72f 78f
12:54 3 7 mph 1020.8mb 72f 75f
12:48 8 11 mph 1020.8mb 72f 75f
12:42 8 13 mph 1020.9mb 72f 75f
12:36 7 10 mph 1021mb 72f 75f
12:30 7 11 mph 1021mb 72f 74f
12:24 9 13 mph 1021.1mb 72f 74f
12:18 5 9 mph 1021.1mb 72f 74f
12:12 7 8 mph 1021.2mb 72f 75f
12:06 6 8 mph 1021.3mb 72f 74f
12:00 6 8 mph 1021.3mb 72f 73f
11:54 8 11 mph 1021.4mb 72f 73f
11:48 7 10 mph 1021.4mb 72f 73f
11:42 9 13 mph 1021.4mb 72f 73f
11:36 6 10 mph 1021.5mb 72f 72f
11:30 5 11 mph 1021.6mb 72f 72f
11:24 8 13 mph 1021.6mb 72f 72f
11:18 7 13 mph 1021.6mb 72f 71f
11:12 9 13 mph 1021.7mb 72f 71f
11:06 6 9 mph 1021.7mb 72f 71f
11:00 8 11 mph 1021.7mb 72f 71f
10:54 7 9 mph 1021.7mb 72f 71f
10:48 11 14 mph 1021.6mb 72f 70f
10:42 8 13 mph 1021.6mb 72f 70f
10:36 9 13 mph 1021.6mb 72f 70f
10:30 9 13 mph 1021.7mb 72f 70f
10:24 8 10 mph 1021.7mb 72f 70f
10:18 7 10 mph 1021.7mb 72f 69f
10:12 7 9 mph 1021.7mb 72f 69f
10:06 9 10 mph 1021.8mb 72f 68f
10:00 7 10 mph 1021.7mb 72f 68f
9:54 7 9 mph 1021.8mb 72f 68f
9:48 7 9 mph 1021.8mb 72f 68f
9:42 7 10 mph 1021.8mb 72f 68f
9:36 6 9 mph 1021.9mb 72f 68f
9:30 6 9 mph 1021.9mb 72f 69f
9:24 7 8 mph 1022mb 72f 68f
9:18 5 9 mph 1022mb 72f 67f
9:12 7 11 mph 1021.9mb 72f 67f
9:06 9 11 mph 1021.9mb 72f 67f
9:00 9 13 mph 1021.9mb 72f 67f
8:54 8 10 mph 1021.9mb 72f 67f
8:48 7 9 mph 1022mb 72f 66f
8:42 6 10 mph 1022mb 72f 66f
8:36 6 10 mph 1021.9mb 72f 66f
8:30 6 8 mph 1021.8mb 72f 65f
8:24 6 9 mph 1021.9mb 72f 65f
8:18 6 10 mph 1021.8mb 72f 65f
8:12 8 10 mph 1021.8mb 72f 65f
8:06 8 11 mph 1021.7mb 73f 64f
8:00 7 11 mph 1021.6mb 73f 64f
7:54 8 13 mph 1021.6mb 73f 64f
7:48 10 15 mph 1021.6mb 73f 63f
7:42 8 13 mph 1021.5mb 73f 64f
7:36 9 13 mph 1021.5mb 73f 63f
7:30 9 11 mph 1021.4mb 73f 64f
7:24 9 13 mph 1021.3mb 73f 64f
7:18 8 10 mph 1021.3mb 73f 64f
7:12 8 13 mph 1021.2mb 73f 64f
7:06 10 14 mph 1021.2mb 73f 64f
7:00 8 11 mph 1021.2mb 73f 63f
6:54 8 11 mph 1021mb 73f 64f
6:48 7 10 mph 1021mb 73f 64f
6:42 7 10 mph 1021mb 73f 64f
6:36 8 10 mph 1020.9mb 73f 63f
6:30 8 10 mph 1020.8mb 73f 63f
6:24 6 9 mph 1020.8mb 73f 63f
6:18 7 10 mph 1020.8mb 73f 63f
6:12 8 11 mph 1020.8mb 73f 63f
6:06 7 10 mph 1020.8mb 73f 63f
6:00 8 10 mph 1020.7mb 73f 63f
5:54 6 10 mph 1020.6mb 73f 63f
5:48 8 11 mph 1020.5mb 73f 63f
5:42 7 10 mph 1020.5mb 73f 63f
5:36 8 11 mph 1020.6mb 73f 63f
5:30 7 11 mph 1020.5mb 73f 63f
5:24 7 10 mph 1020.5mb 73f 63f
5:18 7 9 mph 1020.4mb 72f 64f
5:12 7 9 mph 1020.4mb 72f 64f
5:06 7 10 mph 1020.4mb 72f 64f
5:00 9 10 mph 1020.4mb 72f 64f
4:54 6 8 mph 1020.4mb 72f 64f
4:48 7 8 mph 1020.3mb 72f 64f
4:42 6 8 mph 1020.3mb 72f 64f
4:36 5 7 mph 1020.3mb 73f 65f
4:30 6 7 mph 1020.2mb 73f 65f
4:24 6 8 mph 1020.1mb 73f 65f
4:18 6 8 mph 1020.1mb 73f 64f
4:12 6 9 mph 1020.2mb 73f 64f
4:06 6 7 mph 1020.1mb 73f 65f
4:00 7 8 mph 1020.1mb 73f 65f
3:54 5 6 mph 1020.1mb 73f 65f
3:48 5 7 mph 1020mb 73f 65f
3:42 5 8 mph 1019.9mb 73f 65f
3:36 7 8 mph 1019.8mb 73f 65f
3:30 3 7 mph 1019.8mb 73f 65f
3:24 3 8 mph 1019.8mb 73f 65f
3:18 6 8 mph 1019.8mb 73f 65f
3:12 8 9 mph 1019.9mb 73f 65f
3:06 7 10 mph 1019.9mb 73f 65f
3:00 7 9 mph 1019.8mb 73f 65f
2:54 6 9 mph 1019.8mb 73f 65f
2:48 7 9 mph 1019.9mb 73f 65f
2:42 8 10 mph 1019.9mb 73f 65f
2:36 7 8 mph 1020mb 73f 65f
2:30 6 9 mph 1020mb 73f 65f
2:24 7 9 mph 1019.9mb 73f 65f
2:18 7 9 mph 1020mb 73f 65f
2:12 7 9 mph 1020mb 73f 65f
2:06 7 10 mph 1020.1mb 73f 65f
2:00 8 11 mph 1020.1mb 73f 65f
1:54 5 10 mph 1020.2mb 73f 65f
1:48 5 10 mph 1020.3mb 73f 65f
1:42 6 10 mph 1020.3mb 73f 65f
1:36 6 8 mph 1020.3mb 73f 64f
1:30 7 9 mph 1020.3mb 73f 64f
1:24 7 8 mph 1020.3mb 73f 64f
1:18 6 8 mph 1020.3mb 73f 64f
1:12 7 8 mph 1020.3mb 73f 64f
1:06 8 9 mph 1020.3mb 73f 64f
1:00 6 8 mph 1020.3mb 73f 64f
12:54 5 8 mph 1020.4mb 73f 64f
12:48 7 10 mph 1020.4mb 73f 64f
12:42 7 11 mph 1020.4mb 73f 64f
12:36 7 10 mph 1020.4mb 73f 65f
12:30 8 11 mph 1020.3mb 73f 64f
12:24 8 11 mph 1020.3mb 73f 64f
12:18 5 8 mph 1020.4mb 73f 64f
12:12 6 10 mph 1020.4mb 73f 64f
12:06 7 9 mph 1020.4mb 73f 64f
12:00 6 10 mph 1020.4mb 73f 64f
dom 07/20 11:54 7 10 mph 1020.5mb 73f 63f
11:48 8 11 mph 1020.5mb 73f 63f
11:42 5 7 mph 1020.6mb 73f 64f
11:36 3 7 mph 1020.7mb 73f 63f
11:30 7 9 mph 1020.7mb 73f 63f
11:24 6 7 mph 1020.8mb 73f 63f
11:18 5 8 mph 1020.9mb 73f 63f
11:12 6 7 mph 1020.8mb 73f 63f
11:06 5 7 mph 1020.8mb 73f 64f
11:00 7 10 mph 1020.8mb 73f 64f
10:54 7 8 mph 1020.8mb 73f 63f
10:48 6 8 mph 1020.8mb 73f 63f
10:42 6 10 mph 1020.9mb 73f 64f
10:36 7 9 mph 1020.9mb 73f 64f
10:30 6 8 mph 1020.9mb 73f 64f
10:24 6 8 mph 1020.9mb 73f 64f
10:18 6 9 mph 1020.8mb 73f 64f
10:12 8 13 mph 1020.8mb 73f 64f
10:06 13 18 mph 1020.7mb 73f 65f
10:00 14 17 mph 1020.6mb 73f 65f
9:54 14 16 mph 1020.6mb 73f 67f
9:48 8 14 mph 1020.6mb 73f 68f
9:42 11 14 mph 1020.5mb 73f 68f
9:36 9 13 mph 1020.5mb 73f 68f
9:30 7 10 mph 1020.5mb 73f 68f
9:24 8 11 mph 1020.4mb 73f 69f
9:18 8 9 mph 1020.3mb 73f 69f
9:12 7 9 mph 1020.3mb 73f 69f
9:06 7 10 mph 1020.3mb 73f 70f
9:00 9 11 mph 1020.2mb 73f 70f
8:54 6 9 mph 1020.1mb 73f 70f
8:48 7 10 mph 1020.1mb 73f 70f
8:42 9 11 mph 1020.1mb 73f 70f
8:36 6 8 mph 1020mb 73f 71f
8:30 8 10 mph 1020mb 73f 71f
8:24 5 9 mph 1020mb 73f 71f
8:18 7 11 mph 1019.9mb 73f 71f
8:12 8 13 mph 1019.9mb 73f 71f
8:06 8 15 mph 1019.9mb 73f 71f
8:00 11 15 mph 1019.9mb 73f 71f
7:54 11 15 mph 1019.9mb 73f 71f
7:48 11 15 mph 1019.9mb 73f 71f
7:42 11 14 mph 1019.9mb 73f 71f
7:36 10 14 mph 1019.9mb 73f 71f
7:30 8 11 mph 1019.8mb 73f 72f
7:24 11 14 mph 1019.8mb 73f 72f
7:18 10 14 mph 1019.7mb 73f 72f
7:12 13 15 mph 1019.7mb 73f 72f
7:06 9 14 mph 1019.6mb 73f 72f
7:00 11 16 mph 1019.5mb 73f 72f
6:54 10 16 mph 1019.5mb 73f 73f
6:48 10 15 mph 1019.5mb 73f 73f
6:42 10 15 mph 1019.5mb 73f 73f
6:36 13 15 mph 1019.4mb 73f 73f
6:30 9 14 mph 1019.4mb 73f 73f
6:24 9 15 mph 1019.4mb 73f 73f
6:18 11 14 mph 1019.4mb 73f 73f
6:12 10 14 mph 1019.4mb 73f 73f
6:06 9 14 mph 1019.4mb 73f 73f
6:00 9 13 mph 1019.4mb 73f 73f
5:54 7 13 mph 1019.4mb 73f 74f
5:48 10 13 mph 1019.4mb 73f 73f
5:42 7 14 mph 1019.4mb 73f 74f
5:36 9 13 mph 1019.3mb 73f 74f
5:30 6 11 mph 1019.4mb 73f 74f
5:24 8 11 mph 1019.4mb 73f 74f
5:18 9 11 mph 1019.5mb 73f 74f
5:12 8 11 mph 1019.6mb 73f 74f
5:06 9 11 mph 1019.6mb 73f 74f
5:00 6 10 mph 1019.5mb 73f 74f
4:54 9 11 mph 1019.5mb 73f 74f
4:48 8 13 mph 1019.6mb 73f 74f
4:42 9 13 mph 1019.6mb 73f 74f
4:36 7 11 mph 1019.6mb 73f 74f
4:30 9 11 mph 1019.6mb 73f 74f
4:24 10 13 mph 1019.7mb 73f 74f
4:18 7 10 mph 1019.7mb 73f 74f
4:12 7 10 mph 1019.8mb 73f 74f
4:06 7 13 mph 1019.8mb 73f 74f
4:00 9 13 mph 1019.8mb 73f 74f
3:54 8 13 mph 1019.9mb 73f 74f
3:48 8 11 mph 1019.8mb 73f 74f
3:42 9 13 mph 1020mb 73f 74f
3:36 8 13 mph 1020mb 73f 74f
3:30 6 13 mph 1020mb 73f 74f
3:24 8 11 mph 1020mb 73f 74f
3:18 7 11 mph 1020mb 73f 74f
3:12 8 11 mph 1020.1mb 73f 74f
3:06 7 11 mph 1020.1mb 73f 73f
3:00 6 10 mph 1020.1mb 73f 74f
2:54 5 11 mph 1020.1mb 73f 73f
2:48 9 11 mph 1020.2mb 73f 74f
2:42 6 10 mph 1020.2mb 73f 74f
2:36 10 13 mph 1020.1mb 73f 74f
2:30 7 10 mph 1020.2mb 73f 74f
2:24 6 13 mph 1020.2mb 73f 73f
2:18 6 9 mph 1020.2mb 73f 74f
2:12 7 9 mph 1020.2mb 73f 74f
2:06 5 10 mph 1020.3mb 73f 74f
2:00 9 11 mph 1020.3mb 73f 74f
1:54 7 11 mph 1020.5mb 73f 74f
1:48 8 11 mph 1020.5mb 73f 74f
1:42 7 10 mph 1020.4mb 73f 74f
1:36 6 9 mph 1020.5mb 73f 73f
1:30 6 10 mph 1020.5mb 73f 74f
1:24 8 11 mph 1020.5mb 73f 73f
1:18 8 10 mph 1020.6mb 73f 73f
1:12 6 10 mph 1020.7mb 73f 73f
1:06 5 8 mph 1020.7mb 73f 73f
1:00 5 8 mph 1020.8mb 73f 73f
12:54 7 9 mph 1020.8mb 73f 73f
12:48 5 8 mph 1020.9mb 73f 73f
12:42 5 9 mph 1020.9mb 73f 73f
12:36 6 9 mph 1020.9mb 73f 72f
12:30 7 10 mph 1021mb 73f 72f
12:24 7 9 mph 1021mb 73f 72f
12:18 8 10 mph 1021.1mb 73f 72f
12:12 7 9 mph 1021.1mb 73f 72f
12:06 7 9 mph 1021.1mb 73f 72f
12:00 8 10 mph 1021.2mb 73f 71f
11:54 7 8 mph 1021.3mb 73f 71f
11:48 6 9 mph 1021.4mb 73f 71f
11:42 6 10 mph 1021.3mb 73f 71f
11:36 7 8 mph 1021.4mb 73f 71f
11:30 5 8 mph 1021.5mb 73f 71f
11:24 5 8 mph 1021.5mb 73f 71f
11:18 3 8 mph 1021.6mb 73f 70f
11:12 7 9 mph 1021.5mb 73f 70f
11:06 3 7 mph 1021.6mb 73f 70f
11:00 3 8 mph 1021.7mb 73f 69f
10:54 6 9 mph 1021.7mb 73f 69f
10:48 6 9 mph 1021.7mb 73f 69f
10:42 7 9 mph 1021.8mb 73f 69f
10:36 6 8 mph 1021.8mb 73f 69f
10:30 7 10 mph 1021.7mb 73f 68f
10:24 5 9 mph 1021.8mb 73f 68f
10:18 6 8 mph 1022mb 73f 68f
10:12 5 8 mph 1022mb 73f 68f
10:06 6 8 mph 1022mb 73f 67f
10:00 5 8 mph 1022mb 73f 67f
9:54 6 8 mph 1022.1mb 73f 68f
9:48 3 7 mph 1022.2mb 73f 68f
9:42 5 7 mph 1022.2mb 73f 67f
9:36 2 7 mph 1022.1mb 73f 67f
9:30 5 7 mph 1022mb 73f 67f
9:24 6 9 mph 1022.1mb 73f 67f
9:18 7 9 mph 1022mb 73f 67f
9:12 7 9 mph 1022mb 73f 67f
9:06 6 9 mph 1021.9mb 73f 67f
9:00 7 9 mph 1021.9mb 73f 67f
8:54 7 10 mph 1021.8mb 73f 67f
8:48 6 8 mph 1021.9mb 73f 67f
8:42 6 9 mph 1021.9mb 73f 67f
8:36 7 9 mph 1021.8mb 73f 67f
8:30 7 9 mph 1021.8mb 73f 67f
8:24 5 7 mph 1021.9mb 73f 67f
8:18 5 7 mph 1021.9mb 73f 67f
8:12 5 8 mph 1021.8mb 73f 66f
8:06 7 9 mph 1021.7mb 73f 66f
8:00 6 9 mph 1021.6mb 73f 66f
7:54 6 9 mph 1021.5mb 73f 66f
7:48 5 8 mph 1021.5mb 73f 66f
7:42 6 8 mph 1021.5mb 73f 66f
7:36 6 7 mph 1021.6mb 73f 66f
7:30 5 8 mph 1021.6mb 73f 66f
7:24 5 7 mph 1021.5mb 73f 66f
7:18 5 7 mph 1021.5mb 74f 66f
7:12 6 8 mph 1021.3mb 74f 66f
7:06 6 8 mph 1021.3mb 74f 66f
7:00 7 9 mph 1021.2mb 74f 66f
6:54 7 9 mph 1021.2mb 74f 66f
6:48 6 9 mph 1021.3mb 74f 66f
6:42 6 8 mph 1021.3mb 74f 66f
6:36 7 9 mph 1021.3mb 74f 66f
6:30 6 8 mph 1021.3mb 74f 66f
6:24 5 8 mph 1021.3mb 74f 66f
6:18 5 8 mph 1021.1mb 74f 66f
6:12 5 9 mph 1020.9mb 74f 66f
6:06 6 7 mph 1020.8mb 74f 66f
6:00 7 8 mph 1020.8mb 74f 66f
5:54 5 6 mph 1020.8mb 74f 66f
5:48 5 8 mph 1020.8mb 74f 66f
5:42 7 9 mph 1020.6mb 74f 66f
5:36 7 8 mph 1020.7mb 74f 66f
5:30 5 9 mph 1020.7mb 74f 66f
5:24 6 8 mph 1020.8mb 74f 66f
5:18 5 7 mph 1020.8mb 74f 66f
5:12 6 7 mph 1020.9mb 74f 66f
5:06 5 8 mph 1020.8mb 74f 66f
5:00 5 8 mph 1020.7mb 74f 66f
4:54 6 8 mph 1020.6mb 74f 66f
4:48 7 8 mph 1020.5mb 74f 66f
4:42 7 9 mph 1020.5mb 74f 66f
4:36 6 10 mph 1020.6mb 74f 66f
4:30 7 9 mph 1020.7mb 74f 66f
4:24 6 7 mph 1020.9mb 74f 67f
4:18 5 7 mph 1020.9mb 74f 67f
4:12 5 8 mph 1020.9mb 74f 67f
4:06 5 7 mph 1020.9mb 74f 67f
4:00 6 7 mph 1020.9mb 74f 67f
3:54 3 7 mph 1020.9mb 74f 67f
3:48 5 7 mph 1020.8mb 74f 67f
3:42 5 6 mph 1020.9mb 73f 67f
3:36 3 6 mph 1020.8mb 73f 67f
3:30 3 5 mph 1020.8mb 73f 67f
3:24 2 5 mph 1020.8mb 73f 67f
3:18 2 6 mph 1020.9mb 73f 67f
3:12 3 7 mph 1020.9mb 73f 67f
3:06 5
mph
1021mb 73f 67f
3:00 3 6 mph 1021.1mb 74f 67f
2:54 3 7 mph 1021.2mb 74f 67f
2:48 6 7 mph 1021.3mb 74f 67f
2:42 5 7 mph 1021.3mb 74f 67f
2:36 3 6 mph 1021.3mb 74f 67f
2:30 3 5 mph 1021.3mb 74f 67f
2:24 2 5 mph 1021.5mb 74f 67f
2:18 2 3 mph 1021.6mb 74f 67f
2:12 2 3 mph 1021.7mb 74f 67f
2:06 2 5 mph 1021.6mb 74f 67f
2:00 2 5 mph 1021.6mb 74f 67f
1:54 2 5 mph 1021.6mb 74f 67f
1:48 3 5 mph 1021.7mb 74f 68f
1:42 3 5 mph 1021.8mb 74f 68f
1:36 3 5 mph 1021.9mb 74f 68f
1:30 3 5 mph 1022mb 74f 68f
1:24 2 3 mph 1022mb 74f 68f
1:18 3 6 mph 1022.1mb 74f 68f
1:12 3 5 mph 1022.1mb 74f 68f
1:06 2 3 mph 1022.2mb 74f 68f
1:00 2 3 mph 1022.3mb 74f 69f
12:54 3 5 mph 1022.4mb 74f 69f
12:48 2 5 mph 1022.5mb 74f 69f
12:42 3 6 mph 1022.4mb 74f 69f
12:36 5 6 mph 1022.3mb 74f 69f
12:30 6 7 mph 1022.3mb 74f 69f
12:24 5 7 mph 1022.3mb 74f 69f
12:18 5 6 mph 1022.4mb 74f 69f
12:12 6 7 mph 1022.5mb 74f 69f
12:06 6 8 mph 1022.5mb 74f 69f
12:00 6 7 mph 1022.6mb 74f 69f
sáb 07/19 11:54 6 7 mph 1022.6mb 74f 69f
11:48 5 7 mph 1022.7mb 74f 69f
11:42 5 6 mph 1022.6mb 74f 70f
11:36 5 6 mph 1022.6mb 74f 69f
11:30 5 6 mph 1022.6mb 74f 70f
11:24 5 6 mph 1022.5mb 74f 69f
11:18 5 6 mph 1022.4mb 74f 69f
11:12 5 6 mph 1022.3mb 74f 70f
11:06 5 6 mph 1022.3mb 74f 70f
11:00 3 6 mph 1022.4mb 74f 70f
10:54 5 7 mph 1022.4mb 74f 70f
10:48 6 7 mph 1022.4mb 74f 70f
10:42 6 7 mph 1022.4mb 74f 70f
10:36 6 8 mph 1022.4mb 74f 70f
10:30 6 7 mph 1022.4mb 74f 70f
10:24 6 7 mph 1022.3mb 74f 70f
10:18 6 7 mph 1022.3mb 74f 70f
10:12 6
mph
1022.3mb 74f 71f
10:06 5 6 mph 1022.3mb 74f 71f
10:00 5 6 mph 1022.4mb 74f 71f
9:54 5
mph
1022.4mb 74f 71f
9:48  -  1 mph 1022.5mb 74f 71f
9:42  -  2 mph 1022.6mb 74f 71f
9:36  -  2 mph 1022.6mb 74f 71f
9:30 2 3 mph 1022.6mb 74f 71f
9:24 2 3 mph 1022.6mb 74f 71f
9:18 1 3 mph 1022.5mb 74f 71f
9:12 3 5 mph 1022.5mb 74f 71f
9:06 3 6 mph 1022.6mb 74f 71f
9:00 6 7 mph 1022.6mb 74f 71f
8:54 3 6 mph 1022.7mb 74f 72f
8:48 3 5 mph 1022.6mb 74f 72f
8:42 3 6 mph 1022.6mb 74f 72f
8:36 3
mph
1022.5mb 74f 71f
8:30 1 3 mph 1022.5mb 74f 71f
8:24 3 5 mph 1022.4mb 74f 71f
8:18 2
mph
1022.5mb 74f 71f
8:12 1 3 mph 1022.5mb 74f 72f
8:06 1 2 mph 1022.6mb 74f 72f
8:00 1 2 mph 1022.6mb 74f 72f
7:54 1 5 mph 1022.5mb 74f 71f
7:48 5 6 mph 1022.6mb 75f 72f
7:42 5 7 mph 1022.6mb 75f 72f
7:36 6 8 mph 1022.6mb 75f 72f
7:30 5 7 mph 1022.6mb 75f 72f
7:24 7 8 mph 1022.7mb 75f 72f
7:18 6 8 mph 1022.9mb 75f 72f
7:12 6 7 mph 1022.8mb 75f 72f
7:06 5 8 mph 1022.7mb 75f 73f
7:00 2 7 mph 1022.9mb 75f 73f
6:54 6 8 mph 1022.9mb 74f 73f
6:48 3 8 mph 1022.9mb 74f 73f
6:42 6 8 mph 1022.8mb 74f 73f
6:36 6 8 mph 1022.8mb 74f 73f
6:30 5 8 mph 1022.8mb 74f 73f
6:24 3 9 mph 1022.9mb 74f 73f
6:18 7 10 mph 1023mb 74f 73f
6:12 7 9 mph 1023mb 74f 73f
6:06 6 7 mph 1022.8mb 74f 73f
6:00 5 8 mph 1022.9mb 74f 73f
5:54 7 9 mph 1023mb 74f 74f
5:48 7 9 mph 1023mb 74f 74f
5:42 7 10 mph 1023mb 74f 74f
5:36 7 10 mph 1023mb 74f 74f
5:30 7 10 mph 1023mb 74f 74f
5:24 9 13 mph 1023.1mb 74f 74f
5:18 7 10 mph 1023.1mb 74f 74f
5:12 8 10 mph 1023mb 74f 74f
5:06 7 11 mph 1023.1mb 74f 74f
5:00 8 11 mph 1023.1mb 74f 75f
4:54 6 10 mph 1023.2mb 74f 75f
4:48 7 11 mph 1023.1mb 74f 74f
4:42 7 10 mph 1023.1mb 74f 74f
4:36 6 10 mph 1023mb 74f 75f
4:30 10 13 mph 1022.9mb 74f 74f
4:24 9 13 mph 1022.9mb 74f 75f
4:18 9 13 mph 1022.8mb 74f 75f
4:12 8 13 mph 1022.8mb 74f 74f
4:06 11 13 mph 1022.9mb 74f 74f
4:00 9 14 mph 1023mb 74f 75f
3:54 10 13 mph 1023mb 74f 74f
3:48 10 13 mph 1022.9mb 74f 75f
3:42 9 11 mph 1022.9mb 74f 75f
3:36 11 15 mph 1023mb 74f 75f
3:30 9 14 mph 1023.1mb 74f 76f
3:24 10 13 mph 1023mb 74f 75f
3:18 13 16 mph 1023mb 74f 75f
3:12 7 17 mph 1022.9mb 74f 76f
3:06 10 15 mph 1023mb 74f 76f
3:00 8 13 mph 1022.8mb 74f 75f
2:54 8 14 mph 1022.7mb 74f 75f
2:48 9 14 mph 1022.4mb 74f 74f
2:42 11 14 mph 1022.6mb 74f 74f
2:36 11 14 mph 1022.7mb 74f 74f
2:30 11 14 mph 1022.8mb 74f 75f
2:24 8 10 mph 1022.8mb 74f 75f
2:18 9 11 mph 1023mb 74f 76f
2:12 9 13 mph 1023mb 74f 75f
2:06 9 15 mph 1023mb 74f 75f
2:00 9 15 mph 1023mb 74f 75f
1:54 13 16 mph 1023.3mb 74f 76f
1:48 13 16 mph 1023.3mb 74f 75f
1:42 15 17 mph 1023.5mb 74f 76f
1:36 14 16 mph 1023.5mb 74f 75f
1:30 13 15 mph 1023.6mb 74f 75f
1:24 13 16 mph 1023.6mb 74f 75f
1:18 9 11 mph 1023.6mb 74f 76f
1:12 10 14 mph 1023.6mb 74f 76f
1:06 5 9 mph 1023.6mb 74f 75f
1:00 5 6 mph 1023.6mb 74f 76f
12:54 5 7 mph 1023.7mb 74f 75f
12:48 6 8 mph 1023.8mb 74f 75f
12:42  -  2 mph 1023.8mb 74f 76f
12:36 5 9 mph 1023.9mb 74f 75f
12:30 6 9 mph 1024mb 74f 74f
12:24 6 9 mph 1024mb 74f 74f
12:18 8 10 mph 1024mb 74f 75f
12:12 5 7 mph 1024mb 74f 74f
12:06 2 5 mph 1024mb 74f 74f
12:00 3 8 mph 1024mb 74f 74f
11:54 7 9 mph 1023.9mb 74f 74f
11:48 6 8 mph 1023.9mb 74f 74f
11:42 7 9 mph 1023.8mb 74f 74f
11:36 6
mph
1023.8mb 74f 74f
11:30 5 7 mph 1023.9mb 74f 74f
11:24 5 6 mph 1023.9mb 74f 73f
11:18 6 7 mph 1023.9mb 74f 73f
11:12 5 6 mph 1023.9mb 74f 73f
11:06 5 6 mph 1024mb 74f 73f
11:00 3 5 mph 1023.9mb 74f 73f
10:54 3 5 mph 1023.9mb 74f 73f
10:48 5
mph
1024mb 74f 73f
10:42 3 5 mph 1024mb 74f 73f
10:36 2 5 mph 1024mb 74f 73f
10:30 3
mph
1024mb 74f 73f
10:24 3
mph
1024mb 74f 73f
10:18 3
mph
1024.1mb 74f 73f
10:12 2
mph
1024.1mb 74f 73f
10:06 1 2 mph 1024.1mb 74f 73f
10:00 1 2 mph 1024.2mb 74f 73f
9:54 1 2 mph 1024.3mb 74f 73f
9:48  -  1 mph 1024.3mb 74f 73f
9:42  -  2 mph 1024.3mb 74f 73f
9:36 2 3 mph 1024.2mb 74f 73f
9:30 2 5 mph 1024.1mb 74f 72f
9:24 3 5 mph 1024mb 74f 72f
9:18 2 3 mph 1024mb 74f 72f
9:12 1 3 mph 1024mb 74f 72f
9:06 1 2 mph 1024mb 75f 72f
9:00  -  2 mph 1024mb 74f 71f
8:54 1 2 mph 1024mb 74f 70f
8:48 1 2 mph 1024.1mb 74f 70f
8:42 1 2 mph 1024.1mb 74f 70f
8:36 1 2 mph 1024.2mb 74f 69f
8:30  -  2 mph 1024.2mb 74f 69f
8:24  -  2 mph 1024.2mb 74f 68f
8:18 1 2 mph 1024.1mb 74f 68f
8:12 1 2 mph 1024mb 74f 68f
8:06 1 3 mph 1023.9mb 74f 68f
8:00 1 2 mph 1023.8mb 74f 68f
7:54  -  2 mph 1023.8mb 74f 68f
7:48  -  2 mph 1023.8mb 74f 68f
7:42 2
mph
1023.8mb 74f 69f
7:36 1 2 mph 1023.8mb 74f 69f
7:30  -  2 mph 1023.8mb 74f 68f
7:24  -  3 mph 1023.6mb 74f 68f
7:18 2 3 mph 1023.6mb 75f 68f
7:12  -  2 mph 1023.7mb 75f 68f
7:06 1 3 mph 1023.7mb 75f 67f
7:00 2 5 mph 1023.7mb 75f 67f
6:54  -  2 mph 1023.6mb 75f 67f
6:48 2 3 mph 1023.6mb 75f 67f
6:42 3
mph
1023.6mb 75f 67f
6:36 2 3 mph 1023.5mb 75f 67f
6:30 2 3 mph 1023.5mb 75f 67f
6:24 3 5 mph 1023.3mb 75f 66f
6:18 3
mph
1023.3mb 75f 67f
6:12 3 5 mph 1023.4mb 75f 67f
6:06 3 5 mph 1023.4mb 75f 67f
6:00 2
mph
1023.4mb 75f 67f
5:54 1 2 mph 1023.5mb 75f 66f
5:48 2 3 mph 1023.6mb 75f 66f
5:42 2
mph
1023.5mb 75f 66f
5:36 2 3 mph 1023.6mb 75f 66f
5:30 2
mph
1023.6mb 75f 65f
5:24  -  1 mph 1023.6mb 75f 65f
5:18 2
mph
1023.6mb 75f 66f
5:12 1 2 mph 1023.5mb 75f 66f
5:06 2 3 mph 1023.5mb 75f 66f
5:00 3 5 mph 1023.5mb 75f 66f
4:54 2 5 mph 1023.5mb 75f 66f
4:48 2 3 mph 1023.3mb 75f 65f
4:42 2 3 mph 1023.4mb 75f 65f
4:36 3 5 mph 1023.5mb 75f 66f
4:30 2 5 mph 1023.4mb 75f 66f
4:24 3
mph
1023.5mb 75f 66f
4:18 3 5 mph 1023.4mb 75f 66f
4:12 3 5 mph 1023.4mb 75f 66f
4:06 3 5 mph 1023.4mb 75f 66f
4:00 3 5 mph 1023.3mb 75f 66f
3:54 3 6 mph 1023.2mb 75f 66f